Westminster, MD

5:40 AM EDT on April 19, 2018 (GMT -0400)
Carroll County Regional-Poage

Weather History for KDMW - April, 2013

Change the Weather History Date:

Friday, April 19, 2013

  Actual Average (KTHV) Record (KTHV)
Temperature  
Mean Temperature 63 °F -  
Max Temperature 75 °F 0 °F 89 °F (2004)
Min Temperature 51 °F - 24 °F (2001)
Degree Days  
Heating Degree Days 2    
Growing Degree Days 13 (Base 50)    
Moisture  
Dew Point 60 °F    
Average Humidity 87    
Maximum Humidity 100    
Minimum Humidity 69    
Precipitation  
Precipitation 0.30 in - - ()
Sea Level Pressure  
Sea Level Pressure 29.81 in    
Wind  
Wind Speed 12 mph (South)    
Max Wind Speed 21 mph    
Max Gust Speed 29 mph    
Visibility 9 miles    
Events Rain , Thunderstorm    
Averages and records for this station are not official NWS values.
T = Trace of Precipitation, MM = Missing Value Source: NWS Daily Summary

Daily Weather History Graph

Daily Weather History Graph

Search for Another Location

Airport or City:

Astronomy

Apr. 19, 2013 Rise Set
Actual Time 6:24 AM EDT 7:50 PM EDT
Civil Twilight 5:56 AM EDT 8:18 PM EDT
Nautical Twilight 5:22 AM EDT 8:52 PM EDT
Astronomical Twilight 4:46 AM EDT 9:28 PM EDT
Moon 1:34 PM EDT 2:37 AM EDT
Length of Visible Light 14h 22m
Length of Day
13h 25m
First Quarter, 61% of the Moon is Illuminated
Apr 19
First Quarter
Apr 25
Full
May 2
Last Quarter
May 9
New
May 18
First Quarter

Hourly Weather History & Observations

Time (EDT) Temp. Dew Point Humidity Pressure Visibility Wind Dir Wind Speed Gust Speed Precip Events Conditions
12:05 AM 62.6 °F 60.8 °F 94% 30.01 in 10.0 mi SSE 13.8 mph 18.4 mph N/A   Clear
12:25 AM 62.6 °F 60.8 °F 94% 30.01 in 10.0 mi SSE 10.4 mph 19.6 mph N/A   Clear
12:45 AM 62.6 °F 59.0 °F 88% 30.00 in 10.0 mi SSE 11.5 mph 17.3 mph N/A   Clear
1:05 AM 62.6 °F 59.0 °F 88% 29.99 in 10.0 mi SSE 11.5 mph 18.4 mph N/A   Clear
1:25 AM 60.8 °F 59.0 °F 94% 29.97 in 10.0 mi SSE 11.5 mph 18.4 mph N/A   Clear
1:45 AM 60.8 °F 59.0 °F 94% 29.97 in 10.0 mi SSE 13.8 mph 19.6 mph N/A   Clear
2:05 AM 60.8 °F 59.0 °F 94% 29.96 in 10.0 mi SSE 12.7 mph 18.4 mph N/A   Clear
2:25 AM 60.8 °F 59.0 °F 94% 29.95 in 10.0 mi South 11.5 mph - N/A   Clear
2:45 AM 60.8 °F 59.0 °F 94% 29.96 in 10.0 mi South 11.5 mph 17.3 mph N/A   Clear
3:05 AM 60.8 °F 59.0 °F 94% 29.94 in 10.0 mi SSE 4.6 mph 16.1 mph N/A   Scattered Clouds
3:25 AM 60.8 °F 59.0 °F 94% 29.94 in 10.0 mi South 10.4 mph - N/A   Overcast
3:45 AM 60.8 °F 59.0 °F 94% 29.93 in 10.0 mi SSE 6.9 mph - N/A   Scattered Clouds
4:05 AM 60.8 °F 57.2 °F 88% 29.93 in 10.0 mi SSE 6.9 mph - N/A   Scattered Clouds
4:25 AM 59.0 °F 57.2 °F 94% 29.91 in 10.0 mi SSE 6.9 mph - N/A   Mostly Cloudy
4:45 AM 60.8 °F 57.2 °F 88% 29.91 in 10.0 mi Calm Calm - N/A   Mostly Cloudy
5:25 AM 59.0 °F 57.2 °F 94% 29.91 in 10.0 mi Calm Calm - N/A   Mostly Cloudy
5:45 AM 60.8 °F 59.0 °F 94% 29.91 in 10.0 mi SSE 8.1 mph - N/A   Overcast
6:00 AM 60.8 °F 57.2 °F 88% 29.91 in 10.0 mi SSE 9.2 mph - N/A   Overcast
6:25 AM 60.8 °F 57.2 °F 88% 29.91 in 10.0 mi South 11.5 mph - N/A   Overcast
6:45 AM 60.8 °F 57.2 °F 88% 29.90 in 10.0 mi SSE 10.4 mph - N/A   Overcast
7:05 AM 60.8 °F 57.2 °F 88% 29.89 in 10.0 mi SSE 9.2 mph - N/A   Mostly Cloudy
7:25 AM 60.8 °F 57.2 °F 88% 29.89 in 10.0 mi SSE 9.2 mph - N/A   Scattered Clouds
7:45 AM 62.6 °F 59.0 °F 88% 29.89 in 10.0 mi South 15.0 mph - N/A   Mostly Cloudy
8:05 AM 62.6 °F 59.0 °F 88% 29.90 in 5.0 mi SSE 12.7 mph 21.9 mph N/A Rain Light Rain
8:25 AM 62.6 °F 60.8 °F 94% 29.89 in 7.0 mi South 11.5 mph 17.3 mph N/A   Mostly Cloudy
8:45 AM 62.6 °F 60.8 °F 94% 29.89 in 10.0 mi SSE 12.7 mph - N/A   Overcast
9:05 AM 64.4 °F 62.6 °F 94% 29.87 in 10.0 mi South 16.1 mph 20.7 mph N/A   Mostly Cloudy
9:25 AM 66.2 °F 64.4 °F 94% 29.86 in 10.0 mi South 17.3 mph 26.5 mph N/A   Scattered Clouds
9:45 AM 66.2 °F 64.4 °F 94% 29.85 in 10.0 mi South 16.1 mph 25.3 mph N/A   Scattered Clouds
10:05 AM 68.0 °F 64.4 °F 88% 29.84 in 10.0 mi South 16.1 mph 21.9 mph N/A   Mostly Cloudy
10:25 AM 69.8 °F 64.4 °F 83% 29.83 in 10.0 mi South 13.8 mph 23.0 mph N/A   Overcast
10:45 AM 69.8 °F 62.6 °F 78% 29.84 in 10.0 mi South 16.1 mph 21.9 mph N/A   Overcast
11:05 AM 69.8 °F 64.4 °F 83% 29.83 in 10.0 mi South 18.4 mph 25.3 mph N/A   Overcast
11:25 AM 68.0 °F 64.4 °F 88% 29.83 in 10.0 mi South 15.0 mph 20.7 mph N/A   Overcast
11:45 AM 68.0 °F 62.6 °F 83% 29.82 in 10.0 mi South 13.8 mph 20.7 mph N/A   Light Drizzle
12:05 PM 71.6 °F 64.4 °F 78% 29.80 in 10.0 mi South 17.3 mph 26.5 mph N/A   Mostly Cloudy
12:25 PM 69.8 °F 64.4 °F 83% 29.80 in 10.0 mi South 15.0 mph 25.3 mph N/A   Mostly Cloudy
12:45 PM 69.8 °F 64.4 °F 83% 29.80 in 10.0 mi South 11.5 mph 20.7 mph N/A Rain Light Rain
1:05 PM 69.8 °F 64.4 °F 83% 29.78 in 10.0 mi South 12.7 mph 17.3 mph N/A   Overcast
1:25 PM 71.6 °F 66.2 °F 83% 29.76 in 10.0 mi South 15.0 mph 23.0 mph N/A   Scattered Clouds
2:05 PM 73.4 °F 64.4 °F 73% 29.72 in 10.0 mi South 20.7 mph 27.6 mph N/A   Mostly Cloudy
2:25 PM 73.4 °F 68.0 °F 83% 29.72 in 10.0 mi South 18.4 mph 23.0 mph N/A   Overcast
2:45 PM 75.2 °F 68.0 °F 78% 29.69 in 10.0 mi South 18.4 mph 25.3 mph N/A   Mostly Cloudy
3:05 PM 75.2 °F 68.0 °F 78% 29.66 in 10.0 mi South 17.3 mph 28.8 mph N/A   Scattered Clouds
3:25 PM 73.4 °F 66.2 °F 78% 29.67 in 10.0 mi South 17.3 mph 24.2 mph N/A   Mostly Cloudy
3:45 PM 73.4 °F 64.4 °F 73% 29.67 in 10.0 mi South 13.8 mph 18.4 mph N/A   Overcast
4:05 PM 73.4 °F 64.4 °F 73% 29.65 in 10.0 mi South 11.5 mph 21.9 mph N/A   Mostly Cloudy
4:25 PM 73.4 °F 64.4 °F 73% 29.65 in 10.0 mi South 13.8 mph 20.7 mph N/A Rain Light Rain
4:45 PM 73.4 °F 66.2 °F 78% 29.64 in 10.0 mi South 13.8 mph 19.6 mph N/A   Overcast
5:05 PM 73.4 °F 64.4 °F 73% 29.64 in 10.0 mi South 13.8 mph 20.7 mph N/A   Mostly Cloudy
5:25 PM 75.2 °F 64.4 °F 69% 29.63 in 10.0 mi South 15.0 mph 20.7 mph N/A   Mostly Cloudy
5:45 PM 73.4 °F 64.4 °F 73% 29.63 in 10.0 mi South 15.0 mph 21.9 mph N/A Rain Light Rain
6:10 PM 73.4 °F 66.2 °F 78% 29.62 in 7.0 mi South 12.7 mph 21.9 mph N/A Rain Rain
6:30 PM 69.8 °F 64.4 °F 83% 29.63 in 5.0 mi SSW 11.5 mph 20.7 mph 0.01 in Rain , Thunderstorm Rain
6:45 PM 69.8 °F 64.4 °F 83% 29.63 in 5.0 mi SSW 17.3 mph 27.6 mph 0.02 in Rain Rain
7:10 PM 68.0 °F 64.4 °F 88% 29.67 in 4.0 mi West 13.8 mph 18.4 mph 0.03 in Rain Heavy Rain
7:30 PM 62.6 °F 60.8 °F 94% 29.67 in 2.0 mi West 15.0 mph - 0.19 in Rain , Thunderstorm Heavy Thunderstorms and Rain
7:50 PM 62.6 °F 60.8 °F 94% 29.68 in 10.0 mi West 15.0 mph 26.5 mph 0.01 in Rain , Thunderstorm Heavy Thunderstorms and Rain
8:10 PM 60.8 °F 59.0 °F 94% 29.70 in 10.0 mi WNW 9.2 mph - 0.02 in Rain , Thunderstorm Rain
8:30 PM 59.0 °F 57.2 °F 94% 29.71 in 10.0 mi WNW 11.5 mph 19.6 mph 0.03 in Rain Rain
8:50 PM 57.2 °F 57.2 °F 100% 29.72 in 10.0 mi NW 6.9 mph - 0.01 in Rain Heavy Rain
9:10 PM 57.2 °F 55.4 °F 94% 29.73 in 10.0 mi WNW 6.9 mph - 0.02 in Rain Rain
9:30 PM 55.4 °F 53.6 °F 94% 29.75 in 10.0 mi WNW 11.5 mph 19.6 mph 0.03 in Rain Rain
9:50 PM 55.4 °F 53.6 °F 94% 29.76 in 10.0 mi WNW 6.9 mph - N/A Rain Light Rain
10:30 PM 53.6 °F 51.8 °F 94% 29.76 in 10.0 mi NNW 5.8 mph - 0.01 in Rain Light Rain
10:50 PM 53.6 °F 48.2 °F 82% 29.77 in 10.0 mi NW 8.1 mph - N/A Rain Light Rain
11:10 PM 51.8 °F 48.2 °F 88% 29.80 in 7.0 mi WNW 4.6 mph - 0.01 in Rain Heavy Rain
11:30 PM 51.8 °F 48.2 °F 88% 29.78 in 10.0 mi WNW 4.6 mph - 0.02 in Rain Rain
11:50 PM 51.8 °F 48.2 °F 88% 29.78 in 10.0 mi NW 8.1 mph - N/A Rain Rain